Regional Weather Roundup
Issued by NWS

Home | Current Version | Previous Version | Text Only | Print | Product List | Glossary Off
Versions: 1 2 3 4 5 6 7 8 9 10 11 12 13 14 15 16 17 18 19 20 21 22 23 24 25 26 27 28 29 30 31 32 33 34 35 36 37 38 39 40 41 42 43 44 45 46 47 48 49 50

000
ASUS43 KMKX 040620
RWRWI

WISCONSIN REGIONAL WEATHER ROUNDUP
NATIONAL WEATHER SERVICE MILWAUKEE/SULLIVAN WI
1200 AM CST WED MAR 04 2015

NOTE: "FAIR" INDICATES FEW OR NO CLOUDS BELOW 12,000 FEET WITH NO
SIGNIFICANT WEATHER AND/OR OBSTRUCTIONS TO VISIBILITY.

WIZ001-002-006>008-014>016-023>028-040700-
NORTHWEST WISCONSIN

CITY           SKY/WX    TMP DP  RH WIND       PRES   REMARKS
SUPERIOR ARPT  CLEAR      4  -8  58 W9        29.94R WCI -11
6HR MIN TEMP:   4; 6HR MAX TEMP:  18;

ASHLAND        CLOUDY     7  -1  70 W12G21    29.88R HAZE    WCI  -8
6HR MIN TEMP:   7; 6HR MAX TEMP:  22; 6HR PCP: TRACE;

HAYWARD        MOCLDY     7  -5  57 VRB7G16   29.87R WCI  -5
6HR MIN TEMP:   7; 6HR MAX TEMP:  22;

SIREN          FAIR       5  -6  61 NW9       29.95R WCI -10
6HR MIN TEMP:   5; 6HR MAX TEMP:  20;

CUMBERLAND     CLEAR      5  -6  61 W13G21    29.90R WCI -12
RICE LAKE      CLEAR      7  -4  59 NW13G20   29.94R WCI  -9
6HR MIN TEMP:   7; 6HR MAX TEMP:  23;

CHETEK         CLEAR      7  -3  62 MISG      29.92R
6HR MIN TEMP:   7; 6HR MAX TEMP:  23;

LADYSMITH      CLEAR      9  -1  66 W10       29.87R WCI  -6
6HR MIN TEMP:  11; 6HR MAX TEMP:  25;

EAU CLAIRE     CLEAR      9  -3  58 W9G18     29.94R WCI  -4
6HR MIN TEMP:   9; 6HR MAX TEMP:  27;

MENOMONIE      CLEAR      9  -2  60 W14G23    29.96R WCI  -7
6HR MIN TEMP:   9; 6HR MAX TEMP:  26;

NEW RICHMOND   CLEAR      6  -4  63 W15G23    29.97R WCI -12
6HR MIN TEMP:   6; 6HR MAX TEMP:  20;

OSCEOLA        CLEAR      6  -3  64 W12G20    30.01R WCI  -9
6HR MIN TEMP:   6; 6HR MAX TEMP:  21;

$$

WIZ003>005-009-010-017-018-040700-
NORTH CENTRAL WISCONSIN

CITY           SKY/WX    TMP DP  RH WIND       PRES   REMARKS
MANITOWISH WTR CLEAR      6  -3  65 NW13G20   29.76S WCI -10
6HR MIN TEMP:   6; 6HR MAX TEMP:  22;

ARBOR VITAE    CLOUDY    11   2  67 NW7       29.76R WCI   1
6HR MIN TEMP:  11; 6HR MAX TEMP:  24;

WOODRUFF       CLOUDY    11   2  67 NW7       29.76R WCI   1
6HR MIN TEMP:  11; 6HR MAX TEMP:  24;

RHINELANDER    FAIR      11   2  67 W14G24    29.75R WCI  -5
6HR MIN TEMP:  11; 6HR MAX TEMP:  23; 6HR PCP: TRACE;

EAGLE RIVER    CLEAR     10  -1  63 NW13G18   29.74R WCI  -6
6HR MIN TEMP:  10; 6HR MAX TEMP:  23;

LAND O LAKES   CLOUDY    11   2  65 W10G22    29.74R WCI  -2
6HR MIN TEMP:  11; 6HR MAX TEMP:  24;

PHILLIPS       FAIR       8  -1  66 W12G17    29.80R WCI  -7
6HR MIN TEMP:   9; 6HR MAX TEMP:  23;

TOMAHAWK       CLEAR     11   0  62 CALM      29.79R
6HR MIN TEMP:  11; 6HR MAX TEMP:  24;

MEDFORD        CLEAR     11   1  65 W12G18    29.80S WCI  -3
6HR MIN TEMP:  11; 6HR MAX TEMP:  25;

MERRILL        CLEAR     14   1  58 NW7       29.80R WCI   3
6HR MIN TEMP:  14; 6HR MAX TEMP:  26;

$$

WIZ029-030-035-036-043>047-040700-
CENTRAL WISCONSIN

CITY           SKY/WX    TMP DP  RH WIND       PRES   REMARKS
WAUSAU         CLEAR     15   4  61 W14       29.79R WCI   0
6HR MIN TEMP:  15; 6HR MAX TEMP:  26;

MOSINEE        CLEAR     14   5  67 W14G23    29.82R WCI  -1
MARSHFIELD     CLEAR     13   3  64 NW18G25   29.84R WCI  -4
6HR MIN TEMP:  13; 6HR MAX TEMP:  28;

STEVENS POINT  CLEAR     15   5  64 W10G18    29.83R WCI   2
6HR MIN TEMP:  15; 6HR MAX TEMP:  26;

WAUPACA        CLEAR     22   7  51 W12G17    29.83R WCI  11
6HR MIN TEMP:  22; 6HR MAX TEMP:  31;

WAUTOMA        CLEAR     20   9  62 W12       29.86R WCI   8
6HR MIN TEMP:  20; 6HR MAX TEMP:  29;

WISC RAPIDS    CLEAR     17   5  59 NW16G24   29.87R WCI   2
6HR MIN TEMP:  17; 6HR MAX TEMP:  29;

CAMP DOUGLAS   PTCLDY    16  12  86 W10       29.88R WCI   4
6HR MIN TEMP:  16; 6HR MAX TEMP:  29;

$$

WIZ011>013-019>022-031-037>040-048>050-040700-
NORTHEAST WISCONSIN

CITY           SKY/WX    TMP DP  RH WIND       PRES   REMARKS
ANTIGO         CLEAR     13   3  64 W18       29.75R WCI  -4
6HR MIN TEMP:  13; 6HR MAX TEMP:  25;

SHAWANO        CLEAR     23   9  54 W8        29.80R WCI  14
6HR MIN TEMP:  23; 6HR MAX TEMP:  31;

OCONTO         CLEAR     23  11  60 NW8       29.77R WCI  14
6HR MIN TEMP:  23; 6HR MAX TEMP:  28;

STURGEON BAY   CLEAR     21  10  63 W13       29.78R WCI   9
6HR MIN TEMP:  21; 6HR MAX TEMP:  27;

GREEN BAY      CLEAR     22  12  65 W9        29.79R WCI  12
6HR MIN TEMP:  22; 6HR MAX TEMP:  29;

MANITOWOC      CLEAR     25  14  63 W15G23    29.79R WCI  13
6HR MIN TEMP:  25; 6HR MAX TEMP:  29;

APPLETON       CLEAR     21   9  58 W16G23    29.81R WCI   7
CLINTONVILLE   CLEAR     21   5  49 NW13G23   29.81R WCI   9
OSHKOSH        PTCLDY    24  12  60 NW13G22   29.82R WCI  12
6HR MIN TEMP:  24; 6HR MAX TEMP:  29;

$$

WIZ032>034-041-042-053>061-040700-
SOUTHWEST WISCONSIN

CITY           SKY/WX    TMP DP  RH WIND       PRES   REMARKS
LA CROSSE      CLEAR     14   4  64 W12       29.97R WCI   0
6HR MIN TEMP:  14; 6HR MAX TEMP:  31;

SPARTA         CLOUDY    15   7  72 W6        29.93S WCI   6
6HR MIN TEMP:  15; 6HR MAX TEMP:  30;

VIROQUA        CLEAR     12   6  76 W13G20    29.90R WCI  -3
6HR MIN TEMP:  12; 6HR MAX TEMP:  28;

BOSCOBEL       PTCLDY    17   8  67 W7        29.96R WCI   8
6HR MIN TEMP:  17; 6HR MAX TEMP:  32; 6HR PCP: TRACE;

PRAIRIE DU CHI CLEAR     13   5  68 W13G18    29.98S WCI  -1
6HR MIN TEMP:  13; 6HR MAX TEMP:  31;

PLATTEVILLE    PTCLDY    15   9  77 W12       29.92R WCI   2
6HR MIN TEMP:  15; 6HR MAX TEMP:  31;

$$

WIZ056-057-062-063-064-067-068-040700-
SOUTH CENTRAL WISCONSIN

CITY           SKY/WX    TMP DP  RH WIND       PRES   REMARKS
REEDSBURG      PTCLDY    19  10  70 W12G18    29.88R WCI   6
6HR MIN TEMP:  19; 6HR MAX TEMP:  29;

BARABOO/DELLS  CLEAR     19  10  68 W13G21    29.87R WCI   7
6HR MIN TEMP:  19; 6HR MAX TEMP:  29;

LONE ROCK      CLEAR     19   9  65 W14       29.92R WCI   6
6HR MIN TEMP:  19; 6HR MAX TEMP:  32;

MINERAL POINT  CLEAR     19  12  73 W10       29.88R WCI   8
MADISON        PTCLDY    25  15  66 W9G22     29.85R WCI  15
6HR MIN TEMP:  25; 6HR MAX TEMP:  31;

MIDDLETON      PTCLDY    24  14  64 NW14      29.87R WCI  12
6HR MIN TEMP:  24; 6HR MAX TEMP:  32;

WATERTOWN      CLOUDY    28  21  76 W5        29.83S WCI  22
6HR MIN TEMP:  28; 6HR MAX TEMP:  30;

MONROE         PTCLDY    21  18  86 W17       29.86R WCI   7
JANESVILLE     PTCLDY    28  23  80 W10       29.86R WCI  19
$$

WIZ051-052-058>065-066-070>072-040700-
SOUTHEAST WISCONSIN

CITY           SKY/WX    TMP DP  RH WIND       PRES   REMARKS
MILWAUKEE      CLOUDY    31  21  66 W12       29.83R WCI  22
6HR MIN TEMP:  30; 6HR MAX TEMP:  32;

WAUKESHA       CLOUDY    28  19  69 W10       29.83S WCI  19
MILWAUKEE/TIMM CLOUDY    30  21  69 W6        29.83S WCI  24
RACINE         CLOUDY    30  22  72 W3        29.85R
6HR MIN TEMP:  30; 6HR MAX TEMP:  32;

BURLINGTON     CLOUDY    28  23  81 W7        29.84R WCI  21
6HR MIN TEMP:  25; 6HR MAX TEMP:  29;

KENOSHA        CLOUDY    30  24  78 W8        29.84R WCI  22
6HR MIN TEMP:  28; 6HR MAX TEMP:  32;

FOND DU LAC    MOCLDY    25  13  60 W17G23    29.82R WCI  12
6HR MIN TEMP:  25; 6HR MAX TEMP:  30;

SHEBOYGAN      CLOUDY    28  15  58 NW15G22   29.80R WCI  16
6HR MIN TEMP:  28; 6HR MAX TEMP:  30;

WEST BEND      MOCLDY    28  18  64 W8        29.81S WCI  20
JUNEAU         CLOUDY    25  16  67 W12G17    29.84R WCI  15
6HR MIN TEMP:  25; 6HR MAX TEMP:  29;

$$

LSZ147-162-040700-
LAKE SUPERIOR

STATION/POSITION TIME  TEMP    WIND        PRES    WAVE
                       AIR SEA DIR/SP/G            HT/PER
                 (UTC) (F)     (DEG/KT/KT) (MB)    (FT/S)
DEVILS ISLAND    0600    9     280/ 26/ 32 1012.4R
PORT WING        0500   10     300/ 25/ 30 1012.5R
SAXON HARBOR     0540   12     270/ 11/ 20 1011.5R
$$

LMZ867-665-643>646-040700-
LAKE MICHIGAN

STATION/POSITION TIME  TEMP    WIND        PRES    WAVE



USA.gov is the U.S. government's official web portal to all federal, state and local government web resources and services.